Time,TemperatureF,DewpointF,PressureIn,WindDirection,WindDirectionDegrees,WindSpeedMPH,WindSpeedGustMPH,Humidity,HourlyPrecipIn,Conditions,Clouds,dailyrainin,SoftwareType,DateUTC
2013-04-24 00:02:00,45.0,27.0,29.92,NE,41,2.0,12.0,49,0.00,,,0.00,,2013-04-24 05:02:00,
2013-04-24 00:12:00,45.0,27.0,29.92,NE,41,2.0,12.0,49,0.00,,,0.00,,2013-04-24 05:12:00,
2013-04-24 00:22:00,45.0,27.0,29.92,NE,41,2.0,12.0,49,0.00,,,0.00,,2013-04-24 05:22:00,
2013-04-24 00:32:00,44.0,28.0,29.92,ENE,78,1.0,7.0,53,0.00,,,0.00,,2013-04-24 05:32:00,
2013-04-24 00:42:00,44.0,28.0,29.92,ENE,78,1.0,7.0,53,0.00,,,0.00,,2013-04-24 05:42:00,
2013-04-24 00:52:00,44.0,28.0,29.92,ENE,78,1.0,7.0,53,0.00,,,0.00,,2013-04-24 05:52:00,
2013-04-24 01:02:00,42.0,27.0,29.91,North,359,1.0,10.0,55,0.00,,,0.00,,2013-04-24 06:02:00,
2013-04-24 01:12:00,42.0,27.0,29.91,North,359,1.0,10.0,55,0.00,,,0.00,,2013-04-24 06:12:00,
2013-04-24 01:21:00,42.0,27.0,29.91,North,359,1.0,10.0,55,0.00,,,0.00,,2013-04-24 06:21:00,
2013-04-24 01:32:00,41.0,28.0,29.93,NE,52,5.0,12.0,59,0.00,,,0.00,,2013-04-24 06:32:00,
2013-04-24 01:42:00,41.0,28.0,29.93,NE,52,5.0,12.0,59,0.00,,,0.00,,2013-04-24 06:42:00,
2013-04-24 01:52:00,41.0,28.0,29.93,NE,52,5.0,12.0,59,0.00,,,0.00,,2013-04-24 06:52:00,
2013-04-24 02:02:00,39.0,28.0,29.96,NE,56,4.0,12.0,64,0.00,,,0.00,,2013-04-24 07:02:00,
2013-04-24 02:11:00,39.0,28.0,29.96,NE,56,4.0,12.0,64,0.00,,,0.00,,2013-04-24 07:11:00,
2013-04-24 02:22:00,39.0,28.0,29.96,NE,56,4.0,12.0,64,0.00,,,0.00,,2013-04-24 07:22:00,
2013-04-24 02:32:00,38.0,28.0,29.96,ENE,64,4.0,12.0,67,0.00,,,0.00,,2013-04-24 07:32:00,
2013-04-24 02:42:00,38.0,28.0,29.96,ENE,64,4.0,12.0,67,0.00,,,0.00,,2013-04-24 07:42:00,
2013-04-24 02:52:00,38.0,28.0,29.96,ENE,64,4.0,12.0,67,0.00,,,0.00,,2013-04-24 07:52:00,
2013-04-24 03:02:00,32.0,23.0,30.00,East,99,6.0,14.0,70,0.00,,,0.00,,2013-04-24 08:02:00,
2013-04-24 03:12:00,32.0,23.0,30.00,East,99,6.0,14.0,70,0.00,,,0.00,,2013-04-24 08:12:00,
2013-04-24 03:21:00,32.0,23.0,30.00,East,99,6.0,14.0,70,0.00,,,0.00,,2013-04-24 08:21:00,
2013-04-24 03:33:00,29.0,22.0,30.02,East,88,6.0,13.0,75,0.00,,,0.00,,2013-04-24 08:33:00,
2013-04-24 03:42:00,29.0,22.0,30.02,East,88,6.0,13.0,75,0.00,,,0.00,,2013-04-24 08:42:00,
2013-04-24 03:52:00,29.0,22.0,30.02,East,88,6.0,13.0,75,0.00,,,0.00,,2013-04-24 08:52:00,
2013-04-24 04:02:00,28.0,22.0,30.04,NE,48,2.0,12.0,77,0.00,,,0.00,,2013-04-24 09:02:00,
2013-04-24 04:11:00,28.0,22.0,30.04,NE,48,2.0,12.0,77,0.00,,,0.00,,2013-04-24 09:11:00,
2013-04-24 04:21:00,28.0,22.0,30.04,NE,48,2.0,12.0,77,0.00,,,0.00,,2013-04-24 09:21:00,
2013-04-24 04:33:00,28.0,22.0,30.05,ENE,70,2.0,8.0,78,0.00,,,0.00,,2013-04-24 09:33:00,
2013-04-24 04:42:00,28.0,22.0,30.05,ENE,70,2.0,8.0,78,0.00,,,0.00,,2013-04-24 09:42:00,
2013-04-24 04:53:00,28.0,22.0,30.05,ENE,70,2.0,8.0,78,0.00,,,0.00,,2013-04-24 09:53:00,
2013-04-24 05:02:00,27.0,21.0,30.06,East,100,0.0,7.0,78,0.00,,,0.00,,2013-04-24 10:02:00,
2013-04-24 05:12:00,27.0,21.0,30.06,East,100,0.0,7.0,78,0.00,,,0.00,,2013-04-24 10:12:00,
2013-04-24 05:22:00,27.0,21.0,30.06,East,100,0.0,7.0,78,0.00,,,0.00,,2013-04-24 10:22:00,
2013-04-24 05:32:00,26.0,20.0,30.05,East,100,0.0,0.0,78,0.00,,,0.00,,2013-04-24 10:32:00,
2013-04-24 05:42:00,26.0,20.0,30.05,East,100,0.0,0.0,78,0.00,,,0.00,,2013-04-24 10:42:00,
2013-04-24 05:53:00,26.0,20.0,30.05,East,100,0.0,0.0,78,0.00,,,0.00,,2013-04-24 10:53:00,
2013-04-24 06:02:00,25.0,20.0,30.08,East,100,0.0,3.0,80,0.00,,,0.00,,2013-04-24 11:02:00,
2013-04-24 06:11:00,25.0,20.0,30.08,East,100,0.0,3.0,80,0.00,,,0.00,,2013-04-24 11:11:00,
2013-04-24 06:21:00,25.0,20.0,30.08,East,100,0.0,3.0,80,0.00,,,0.00,,2013-04-24 11:21:00,
2013-04-24 06:32:00,29.0,23.0,30.06,SE,140,2.0,8.0,79,0.00,,,0.00,,2013-04-24 11:32:00,
2013-04-24 06:42:00,29.0,23.0,30.06,SE,140,2.0,8.0,79,0.00,,,0.00,,2013-04-24 11:42:00,
2013-04-24 06:52:00,29.0,23.0,30.06,SE,140,2.0,8.0,79,0.00,,,0.00,,2013-04-24 11:52:00,
2013-04-24 07:02:00,30.0,24.0,30.09,ESE,119,1.0,8.0,79,0.00,,,0.00,,2013-04-24 12:02:00,
2013-04-24 07:11:00,30.0,24.0,30.09,ESE,119,1.0,8.0,79,0.00,,,0.00,,2013-04-24 12:11:00,
2013-04-24 07:22:00,30.0,24.0,30.09,ESE,119,1.0,8.0,79,0.00,,,0.00,,2013-04-24 12:22:00,
2013-04-24 07:32:00,30.0,24.0,30.10,ESE,117,1.0,5.0,77,0.00,,,0.00,,2013-04-24 12:32:00,
2013-04-24 07:42:00,30.0,24.0,30.10,ESE,117,1.0,5.0,77,0.00,,,0.00,,2013-04-24 12:42:00,
2013-04-24 07:52:00,30.0,24.0,30.10,ESE,117,1.0,5.0,77,0.00,,,0.00,,2013-04-24 12:52:00,
2013-04-24 08:01:00,28.0,22.0,30.16,ESE,117,0.0,3.0,78,0.00,,,0.00,,2013-04-24 13:01:00,
2013-04-24 08:12:00,28.0,22.0,30.16,ESE,117,0.0,3.0,78,0.00,,,0.00,,2013-04-24 13:12:00,
2013-04-24 08:22:00,28.0,22.0,30.16,ESE,117,0.0,3.0,78,0.00,,,0.00,,2013-04-24 13:22:00,
2013-04-24 08:31:00,30.0,25.0,30.15,ESE,119,0.0,1.0,80,0.00,,,0.00,,2013-04-24 13:31:00,
2013-04-24 08:42:00,30.0,25.0,30.15,ESE,119,0.0,1.0,80,0.00,,,0.00,,2013-04-24 13:42:00,
2013-04-24 08:52:00,30.0,25.0,30.15,ESE,119,0.0,1.0,80,0.00,,,0.00,,2013-04-24 13:52:00,
2013-04-24 09:01:00,35.0,28.0,30.14,SE,137,2.0,3.0,74,0.00,,,0.00,,2013-04-24 14:01:00,
2013-04-24 09:11:00,35.0,28.0,30.14,SE,137,2.0,3.0,74,0.00,,,0.00,,2013-04-24 14:11:00,
2013-04-24 09:21:00,35.0,28.0,30.14,SE,137,2.0,3.0,74,0.00,,,0.00,,2013-04-24 14:21:00,
2013-04-24 09:32:00,37.0,27.0,30.14,ESE,113,2.0,5.0,66,0.00,,,0.00,,2013-04-24 14:32:00,
2013-04-24 09:42:00,37.0,27.0,30.14,ESE,113,2.0,5.0,66,0.00,,,0.00,,2013-04-24 14:42:00,
2013-04-24 09:52:00,37.0,27.0,30.14,ESE,113,2.0,5.0,66,0.00,,,0.00,,2013-04-24 14:52:00,
2013-04-24 10:01:00,39.0,27.0,30.13,ESE,103,3.0,10.0,62,0.00,,,0.00,,2013-04-24 15:01:00,
2013-04-24 10:11:00,39.0,27.0,30.13,ESE,103,3.0,10.0,62,0.00,,,0.00,,2013-04-24 15:11:00,
2013-04-24 10:21:00,39.0,27.0,30.13,ESE,103,3.0,10.0,62,0.00,,,0.00,,2013-04-24 15:21:00,
2013-04-24 10:33:00,41.0,28.0,30.12,SE,131,4.0,10.0,59,0.00,,,0.00,,2013-04-24 15:33:00,
2013-04-24 10:43:00,41.0,28.0,30.12,SE,131,4.0,10.0,59,0.00,,,0.00,,2013-04-24 15:43:00,
2013-04-24 10:53:00,41.0,28.0,30.12,SE,131,4.0,10.0,59,0.00,,,0.00,,2013-04-24 15:53:00,
2013-04-24 11:03:00,42.0,28.0,30.14,SSE,157,6.0,14.0,57,0.00,,,0.00,,2013-04-24 16:03:00,
2013-04-24 11:12:00,42.0,28.0,30.14,SSE,157,6.0,14.0,57,0.00,,,0.00,,2013-04-24 16:12:00,
2013-04-24 11:23:00,42.0,28.0,30.14,SSE,157,6.0,14.0,57,0.00,,,0.00,,2013-04-24 16:23:00,
2013-04-24 11:32:00,43.0,28.0,30.14,SSE,148,5.0,13.0,56,0.00,,,0.00,,2013-04-24 16:32:00,
2013-04-24 11:42:00,43.0,28.0,30.14,SSE,148,5.0,13.0,56,0.00,,,0.00,,2013-04-24 16:42:00,
2013-04-24 11:52:00,43.0,28.0,30.14,SSE,148,5.0,13.0,56,0.00,,,0.00,,2013-04-24 16:52:00,
2013-04-24 12:02:00,45.0,28.0,30.14,ENE,71,6.0,14.0,52,0.00,,,0.00,,2013-04-24 17:02:00,
2013-04-24 12:12:00,45.0,28.0,30.14,ENE,71,6.0,14.0,52,0.00,,,0.00,,2013-04-24 17:12:00,
2013-04-24 12:22:00,45.0,28.0,30.14,ENE,71,6.0,14.0,52,0.00,,,0.00,,2013-04-24 17:22:00,
2013-04-24 12:32:00,46.0,28.0,30.15,SSE,164,7.0,13.0,50,0.00,,,0.00,,2013-04-24 17:32:00,
2013-04-24 12:42:00,46.0,28.0,30.15,SSE,164,7.0,13.0,50,0.00,,,0.00,,2013-04-24 17:42:00,
2013-04-24 12:52:00,46.0,28.0,30.15,SSE,164,7.0,13.0,50,0.00,,,0.00,,2013-04-24 17:52:00,
2013-04-24 13:02:00,48.0,29.0,30.14,East,85,7.0,13.0,48,0.00,,,0.00,,2013-04-24 18:02:00,
2013-04-24 13:12:00,48.0,29.0,30.14,East,85,7.0,13.0,48,0.00,,,0.00,,2013-04-24 18:12:00,
2013-04-24 13:22:00,48.0,29.0,30.14,East,85,7.0,13.0,48,0.00,,,0.00,,2013-04-24 18:22:00,
2013-04-24 13:33:00,51.0,30.0,30.11,South,174,10.0,17.0,44,0.00,,,0.00,,2013-04-24 18:33:00,
2013-04-24 13:43:00,51.0,30.0,30.11,South,174,10.0,17.0,44,0.00,,,0.00,,2013-04-24 18:43:00,
2013-04-24 13:52:00,51.0,30.0,30.11,South,174,10.0,17.0,44,0.00,,,0.00,,2013-04-24 18:52:00,
2013-04-24 14:02:00,51.0,30.0,30.13,SSE,154,8.0,20.0,44,0.00,,,0.00,,2013-04-24 19:02:00,
2013-04-24 14:11:00,51.0,30.0,30.13,SSE,154,8.0,20.0,44,0.00,,,0.00,,2013-04-24 19:11:00,
2013-04-24 14:22:00,51.0,30.0,30.13,SSE,154,8.0,20.0,44,0.00,,,0.00,,2013-04-24 19:22:00,
2013-04-24 14:32:00,54.0,31.0,30.09,SE,130,11.0,20.0,41,0.00,,,0.00,,2013-04-24 19:32:00,
2013-04-24 14:42:00,54.0,31.0,30.09,SE,130,11.0,20.0,41,0.00,,,0.00,,2013-04-24 19:42:00,
2013-04-24 14:52:00,54.0,31.0,30.09,SE,130,11.0,20.0,41,0.00,,,0.00,,2013-04-24 19:52:00,
2013-04-24 15:02:00,58.0,33.0,30.09,SSE,150,9.0,18.0,39,0.00,,,0.00,,2013-04-24 20:02:00,
2013-04-24 15:11:00,58.0,33.0,30.09,SSE,150,9.0,18.0,39,0.00,,,0.00,,2013-04-24 20:11:00,
2013-04-24 15:22:00,58.0,33.0,30.09,SSE,150,9.0,18.0,39,0.00,,,0.00,,2013-04-24 20:22:00,
2013-04-24 15:32:00,60.0,34.0,30.08,ESE,123,7.0,17.0,38,0.00,,,0.00,,2013-04-24 20:32:00,
2013-04-24 15:42:00,60.0,34.0,30.08,ESE,123,7.0,17.0,38,0.00,,,0.00,,2013-04-24 20:42:00,
2013-04-24 15:52:00,60.0,34.0,30.08,ESE,123,7.0,17.0,38,0.00,,,0.00,,2013-04-24 20:52:00,
2013-04-24 16:02:00,60.0,34.0,30.07,ESE,123,9.0,17.0,38,0.00,,,0.00,,2013-04-24 21:02:00,
2013-04-24 16:11:00,60.0,34.0,30.07,ESE,123,9.0,17.0,38,0.00,,,0.00,,2013-04-24 21:11:00,
2013-04-24 16:21:00,60.0,34.0,30.07,ESE,123,9.0,17.0,38,0.00,,,0.00,,2013-04-24 21:21:00,
2013-04-24 16:33:00,63.0,36.0,30.05,SSE,152,7.0,16.0,37,0.00,,,0.00,,2013-04-24 21:33:00,
2013-04-24 16:42:00,63.0,36.0,30.05,SSE,152,7.0,16.0,37,0.00,,,0.00,,2013-04-24 21:42:00,
2013-04-24 16:52:00,63.0,36.0,30.05,SSE,152,7.0,16.0,37,0.00,,,0.00,,2013-04-24 21:52:00,
2013-04-24 17:03:00,63.0,36.0,30.04,SE,142,6.0,14.0,37,0.00,,,0.00,,2013-04-24 22:03:00,
2013-04-24 17:12:00,63.0,36.0,30.04,SE,142,6.0,14.0,37,0.00,,,0.00,,2013-04-24 22:12:00,
2013-04-24 17:22:00,63.0,36.0,30.04,SE,142,6.0,14.0,37,0.00,,,0.00,,2013-04-24 22:22:00,
2013-04-24 17:33:00,64.0,37.0,30.03,SSE,154,6.0,13.0,36,0.00,,,0.00,,2013-04-24 22:33:00,
2013-04-24 17:42:00,64.0,37.0,30.03,SSE,154,6.0,13.0,36,0.00,,,0.00,,2013-04-24 22:42:00,
2013-04-24 17:52:00,64.0,37.0,30.03,SSE,154,6.0,13.0,36,0.00,,,0.00,,2013-04-24 22:52:00,
2013-04-24 18:02:00,64.0,36.0,30.01,ENE,75,4.0,13.0,35,0.00,,,0.00,,2013-04-24 23:02:00,
2013-04-24 18:12:00,64.0,36.0,30.01,ENE,75,4.0,13.0,35,0.00,,,0.00,,2013-04-24 23:12:00,
2013-04-24 18:21:00,64.0,36.0,30.01,ENE,75,4.0,13.0,35,0.00,,,0.00,,2013-04-24 23:21:00,
2013-04-24 18:32:00,64.0,36.0,30.01,SE,144,5.0,17.0,35,0.00,,,0.00,,2013-04-24 23:32:00,
2013-04-24 18:42:00,64.0,36.0,30.01,SE,144,5.0,17.0,35,0.00,,,0.00,,2013-04-24 23:42:00,
2013-04-24 18:52:00,64.0,36.0,30.01,SE,144,5.0,17.0,35,0.00,,,0.00,,2013-04-24 23:52:00,
2013-04-24 19:01:00,63.0,35.0,30.01,ENE,78,4.0,12.0,35,0.00,,,0.00,,2013-04-25 00:01:00,
2013-04-24 19:12:00,63.0,35.0,30.01,ENE,78,4.0,12.0,35,0.00,,,0.00,,2013-04-25 00:12:00,
2013-04-24 19:22:00,63.0,35.0,30.01,ENE,78,4.0,12.0,35,0.00,,,0.00,,2013-04-25 00:22:00,
2013-04-24 19:32:00,62.0,34.0,30.03,ENE,68,2.0,12.0,35,0.00,,,0.00,,2013-04-25 00:32:00,
2013-04-24 19:42:00,62.0,34.0,30.03,ENE,68,2.0,12.0,35,0.00,,,0.00,,2013-04-25 00:42:00,
2013-04-24 19:52:00,62.0,34.0,30.03,ENE,68,2.0,12.0,35,0.00,,,0.00,,2013-04-25 00:52:00,
2013-04-24 20:01:00,60.0,32.0,30.01,South,169,5.0,14.0,35,0.00,,,0.00,,2013-04-25 01:01:00,
2013-04-24 20:11:00,60.0,32.0,30.01,South,169,5.0,14.0,35,0.00,,,0.00,,2013-04-25 01:11:00,
2013-04-24 20:23:00,60.0,32.0,30.01,South,169,5.0,14.0,35,0.00,,,0.00,,2013-04-25 01:23:00,
2013-04-24 20:32:00,58.0,32.0,30.04,East,89,1.0,16.0,37,0.00,,,0.00,,2013-04-25 01:32:00,
2013-04-24 20:42:00,58.0,32.0,30.04,East,89,1.0,16.0,37,0.00,,,0.00,,2013-04-25 01:42:00,
2013-04-24 20:52:00,58.0,32.0,30.04,East,89,1.0,16.0,37,0.00,,,0.00,,2013-04-25 01:52:00,
2013-04-24 21:02:00,56.0,31.0,30.03,ENE,64,5.0,16.0,38,0.00,,,0.00,,2013-04-25 02:02:00,
2013-04-24 21:11:00,56.0,31.0,30.03,ENE,64,5.0,16.0,38,0.00,,,0.00,,2013-04-25 02:11:00,
2013-04-24 21:22:00,56.0,31.0,30.03,ENE,64,5.0,16.0,38,0.00,,,0.00,,2013-04-25 02:22:00,
2013-04-24 21:32:00,54.0,31.0,30.06,ENE,78,0.0,8.0,41,0.00,,,0.00,,2013-04-25 02:32:00,
2013-04-24 21:42:00,54.0,31.0,30.06,ENE,78,0.0,8.0,41,0.00,,,0.00,,2013-04-25 02:42:00,
2013-04-24 21:52:00,54.0,31.0,30.06,ENE,78,0.0,8.0,41,0.00,,,0.00,,2013-04-25 02:52:00,
2013-04-24 22:02:00,50.0,28.0,30.08,ENE,75,0.0,5.0,42,0.00,,,0.00,,2013-04-25 03:02:00,
2013-04-24 22:11:00,50.0,28.0,30.08,ENE,75,0.0,5.0,42,0.00,,,0.00,,2013-04-25 03:11:00,
2013-04-24 22:22:00,50.0,28.0,30.08,ENE,75,0.0,5.0,42,0.00,,,0.00,,2013-04-25 03:22:00,
2013-04-24 22:33:00,45.0,27.0,30.12,ENE,75,0.0,1.0,49,0.00,,,0.00,,2013-04-25 03:33:00,
2013-04-24 22:43:00,45.0,27.0,30.12,ENE,75,0.0,1.0,49,0.00,,,0.00,,2013-04-25 03:43:00,
2013-04-24 22:52:00,45.0,27.0,30.12,ENE,75,0.0,1.0,49,0.00,,,0.00,,2013-04-25 03:52:00,
2013-04-24 23:03:00,42.0,27.0,30.13,ENE,75,0.0,0.0,54,0.00,,,0.00,,2013-04-25 04:03:00,
2013-04-24 23:12:00,42.0,27.0,30.13,ENE,75,0.0,0.0,54,0.00,,,0.00,,2013-04-25 04:12:00,
2013-04-24 23:23:00,42.0,27.0,30.13,ENE,75,0.0,0.0,54,0.00,,,0.00,,2013-04-25 04:23:00,
2013-04-24 23:32:00,39.0,25.0,30.15,ENE,75,0.0,0.0,57,0.00,,,0.00,,2013-04-25 04:32:00,
2013-04-24 23:43:00,39.0,25.0,30.15,ENE,75,0.0,0.0,57,0.00,,,0.00,,2013-04-25 04:43:00,
2013-04-24 23:52:00,39.0,25.0,30.15,ENE,75,0.0,0.0,57,0.00,,,0.00,,2013-04-25 04:52:00,